カタログに戻る

TIANHUI 6B

運用中科学SSO
NORAD 55839·PAYLOAD·🇨🇳 China

打ち上げ Mar 9, 2023 から Taiyuan Satellite Launch Center

Loading…

次のパス (今後24時間)

TLE

最新Source: Space-Track

元期: Sep 14, 2026, 14:44 UTC

1 55839U 23030D   26257.61429404 -.00000116  00000-0 -48007-4 0  9993
2 55839  99.0124 264.7476 0002615 144.9313 215.2025 14.01326683179910

AllMySatでTIANHUI 6Bをリアルタイム追跡

Download on the App Store